User: anonymous   Login
Location: Newark
(5.8900°S, 42.6378°W)
Time: 09:25:46
(UTC+00:00)
Language:

RS-15 - Orbit

View from above orbital plane
View from above orbital plane
View from above satellite
View from above satellite

Ground track
Ground track

The orbit data is extracted from the following two-line orbital elements,

1 23439U 94085A   19291.82019250 -.00000032 +00000-0 +30991-3 0  9997
2 23439 064.8147 278.6254 0145232 089.3943 272.3619 11.27568345021667
Epoch (UTC): 18 October 2019 19:41:04
Eccentricity: 0.0145232
inclination: 64.8147°
perigee height: 1900 km
apogee height: 2144 km
right ascension of ascending node: 278.6254°
argument of perigee: 89.3943°
revolutions per day: 11.27568345
mean anomaly at epoch: 272.3619°
orbit number at epoch: 2166

The dashed part of the orbit path shows where the satellite is in the earth's shadow,  

DLR